Back to catalog

ONEWEB-0609

AliveCommunicationsPO
NORAD 56070·PAYLOAD·🇬🇧 United Kingdom

Launched Mar 26, 2023 from Satish Dhawan Space Centre

Loading…

Next Passes (next 24 hours)

TLE

FreshSource: CelesTrak SupGP

Epoch: Sep 14, 2026, 17:15 UTC

1 56070C 23043AA  26257.71928655  .00000447  00000+0  11894-2 0  2571
2 56070  87.8984 241.3557 0001979  85.0492   2.3593 13.15548917    12

Track ONEWEB-0609 in real time with AllMySat

Download on the App Store